Time,TemperatureF,DewpointF,PressureIn,WindDirection,WindDirectionDegrees,WindSpeedMPH,WindSpeedGustMPH,Humidity,HourlyPrecipIn,Conditions,Clouds,dailyrainin,SoftwareType,DateUTC
2013-07-31 00:00:00,80.1,75.9,30.14,SW,218,2.0,4.0,87,0.00,,,0.12,Wunderground v.1.15,2013-07-31 04:00:00,
2013-07-31 00:02:00,80.1,75.9,30.14,South,191,3.0,5.0,87,0.00,,,0.12,Wunderground v.1.15,2013-07-31 04:02:00,
2013-07-31 00:04:00,80.2,76.0,30.14,SW,218,3.0,5.0,87,0.00,,,0.00,Wunderground v.1.15,2013-07-31 04:04:00,
2013-07-31 00:10:00,80.2,76.0,30.14,South,190,3.0,5.0,87,0.00,,,0.00,Wunderground v.1.15,2013-07-31 04:10:00,
2013-07-31 00:14:00,79.9,76.0,30.14,South,182,3.0,5.0,88,0.00,,,0.00,Wunderground v.1.15,2013-07-31 04:14:00,
2013-07-31 00:20:00,79.6,75.7,30.14,SSW,196,3.0,3.0,88,0.00,,,0.00,Wunderground v.1.15,2013-07-31 04:20:00,
2013-07-31 00:24:00,79.6,76.1,30.14,South,173,3.0,3.0,89,0.00,,,0.00,Wunderground v.1.15,2013-07-31 04:24:00,
2013-07-31 00:30:00,79.7,75.8,30.14,SSW,192,2.0,3.0,88,0.00,,,0.00,Wunderground v.1.15,2013-07-31 04:30:00,
2013-07-31 00:36:00,79.8,75.9,30.14,SSW,192,2.0,4.0,88,0.00,,,0.00,Wunderground v.1.15,2013-07-31 04:36:00,
2013-07-31 00:42:00,79.6,75.7,30.14,SW,222,3.0,5.0,88,0.00,,,0.00,Wunderground v.1.15,2013-07-31 04:42:00,
2013-07-31 00:48:00,79.8,75.9,30.14,South,188,3.0,5.0,88,0.00,,,0.00,Wunderground v.1.15,2013-07-31 04:48:00,
2013-07-31 00:54:00,79.9,76.0,30.14,SSW,194,2.0,3.0,88,0.00,,,0.00,Wunderground v.1.15,2013-07-31 04:54:00,
2013-07-31 01:00:00,79.5,75.6,30.14,SSE,161,2.0,2.0,88,0.00,,,0.00,Wunderground v.1.15,2013-07-31 05:00:00,
2013-07-31 01:06:00,79.2,75.7,30.14,South,188,3.0,6.0,89,0.00,,,0.00,Wunderground v.1.15,2013-07-31 05:06:00,
2013-07-31 01:12:00,78.9,75.4,30.14,South,183,3.0,3.0,89,0.00,,,0.00,Wunderground v.1.15,2013-07-31 05:12:00,
2013-07-31 01:18:00,78.9,75.7,30.13,SSE,165,2.0,3.0,90,0.00,,,0.00,Wunderground v.1.15,2013-07-31 05:18:00,
2013-07-31 01:24:00,79.0,75.5,30.13,South,187,2.0,3.0,89,0.00,,,0.00,Wunderground v.1.15,2013-07-31 05:24:00,
2013-07-31 01:30:00,78.9,75.4,30.13,South,182,2.0,3.0,89,0.00,,,0.00,Wunderground v.1.15,2013-07-31 05:30:00,
2013-07-31 01:36:00,78.8,75.3,30.13,South,183,3.0,5.0,89,0.00,,,0.00,Wunderground v.1.15,2013-07-31 05:36:00,
2013-07-31 01:42:00,78.7,75.5,30.13,SSE,157,3.0,3.0,90,0.00,,,0.00,Wunderground v.1.15,2013-07-31 05:42:00,
2013-07-31 01:48:00,78.6,75.4,30.12,South,172,2.0,3.0,90,0.00,,,0.00,Wunderground v.1.15,2013-07-31 05:48:00,
2013-07-31 01:54:00,78.8,75.6,30.12,South,180,2.0,3.0,90,0.00,,,0.00,Wunderground v.1.15,2013-07-31 05:54:00,
2013-07-31 02:00:00,78.8,75.6,30.12,South,175,2.0,2.0,90,0.00,,,0.00,Wunderground v.1.15,2013-07-31 06:00:00,
2013-07-31 02:06:00,78.7,75.5,30.12,South,176,2.0,4.0,90,0.00,,,0.00,Wunderground v.1.15,2013-07-31 06:06:00,
2013-07-31 02:12:00,78.5,75.7,30.12,SSW,199,3.0,4.0,91,0.00,,,0.00,Wunderground v.1.15,2013-07-31 06:12:00,
2013-07-31 02:18:00,78.6,76.1,30.12,South,181,3.0,4.0,92,0.00,,,0.00,Wunderground v.1.15,2013-07-31 06:18:00,
2013-07-31 02:24:00,78.8,75.9,30.11,South,178,3.0,3.0,91,0.00,,,0.00,Wunderground v.1.15,2013-07-31 06:24:00,
2013-07-31 02:30:00,78.7,75.8,30.11,South,187,3.0,4.0,91,0.00,,,0.00,Wunderground v.1.15,2013-07-31 06:30:00,
2013-07-31 02:36:00,78.5,75.7,30.11,South,185,3.0,5.0,91,0.00,,,0.00,Wunderground v.1.15,2013-07-31 06:36:00,
2013-07-31 02:42:00,78.4,75.9,30.11,SSW,200,3.0,3.0,92,0.00,,,0.00,Wunderground v.1.15,2013-07-31 06:42:00,
2013-07-31 02:48:00,78.5,76.0,30.11,SSW,201,2.0,3.0,92,0.00,,,0.00,Wunderground v.1.15,2013-07-31 06:48:00,
2013-07-31 02:54:00,78.6,76.1,30.11,SSW,197,2.0,3.0,92,0.00,,,0.00,Wunderground v.1.15,2013-07-31 06:54:00,
2013-07-31 03:00:00,78.7,75.8,30.10,South,170,2.0,3.0,91,0.00,,,0.00,Wunderground v.1.15,2013-07-31 07:00:00,
2013-07-31 03:06:00,78.4,75.9,30.10,South,188,2.0,4.0,92,0.00,,,0.00,Wunderground v.1.15,2013-07-31 07:06:00,
2013-07-31 03:12:00,78.2,76.0,30.10,SSW,202,3.0,3.0,93,0.00,,,0.00,Wunderground v.1.15,2013-07-31 07:12:00,
2013-07-31 03:18:00,78.2,76.0,30.10,SW,221,2.0,3.0,93,0.00,,,0.00,Wunderground v.1.15,2013-07-31 07:18:00,
2013-07-31 03:24:00,78.1,75.6,30.10,SW,223,1.0,2.0,92,0.00,,,0.00,Wunderground v.1.15,2013-07-31 07:24:00,
2013-07-31 03:30:00,78.0,75.8,30.10,WSW,238,0.0,0.0,93,0.00,,,0.00,Wunderground v.1.15,2013-07-31 07:30:00,
2013-07-31 03:36:00,77.9,75.7,30.10,SW,232,0.0,1.0,93,0.00,,,0.00,Wunderground v.1.15,2013-07-31 07:36:00,
2013-07-31 03:42:00,77.9,75.7,30.10,SW,236,0.0,0.0,93,0.00,,,0.00,Wunderground v.1.15,2013-07-31 07:42:00,
2013-07-31 03:48:00,77.7,75.5,30.10,SW,236,0.0,0.0,93,0.00,,,0.00,Wunderground v.1.15,2013-07-31 07:48:00,
2013-07-31 03:54:00,77.5,75.6,30.10,WNW,302,0.0,0.0,94,0.00,,,0.00,Wunderground v.1.15,2013-07-31 07:54:00,
2013-07-31 04:00:00,77.2,75.3,30.10,NW,305,0.0,0.0,94,0.00,,,0.00,Wunderground v.1.15,2013-07-31 08:00:00,
2013-07-31 04:06:00,77.8,75.9,30.10,NW,305,0.0,4.0,94,0.00,,,0.00,Wunderground v.1.15,2013-07-31 08:06:00,
2013-07-31 04:12:00,77.8,75.9,30.10,NW,305,0.0,0.0,94,0.00,,,0.00,Wunderground v.1.15,2013-07-31 08:12:00,
2013-07-31 04:18:00,-999.9,-99.9,30.10,North,32767,-999.0,0.0,255,-99.99,,,0.00,Wunderground v.1.15,2013-07-31 08:18:00,
2013-07-31 04:24:00,-999.9,-99.9,30.10,North,32767,-999.0,0.0,255,-99.99,,,0.00,Wunderground v.1.15,2013-07-31 08:24:00,
2013-07-31 04:30:00,-999.9,-99.9,30.09,North,32767,-999.0,0.0,255,-99.99,,,0.00,Wunderground v.1.15,2013-07-31 08:30:00,
2013-07-31 04:36:00,-999.9,-99.9,30.09,North,32767,-999.0,0.0,255,-99.99,,,0.00,Wunderground v.1.15,2013-07-31 08:36:00,
2013-07-31 04:42:00,-999.9,-99.9,30.09,North,32767,-999.0,0.0,255,-99.99,,,0.00,Wunderground v.1.15,2013-07-31 08:42:00,
2013-07-31 04:48:00,-999.9,-99.9,30.09,North,32767,-999.0,0.0,255,-99.99,,,0.00,Wunderground v.1.15,2013-07-31 08:48:00,
2013-07-31 04:54:00,-999.9,-99.9,30.09,North,32767,-999.0,0.0,255,-99.99,,,0.00,Wunderground v.1.15,2013-07-31 08:54:00,
2013-07-31 05:00:00,-999.9,-99.9,30.09,North,32767,-999.0,0.0,255,-99.99,,,0.00,Wunderground v.1.15,2013-07-31 09:00:00,
2013-07-31 05:06:00,-999.9,-99.9,30.09,North,32767,-999.0,0.0,255,-99.99,,,0.00,Wunderground v.1.15,2013-07-31 09:06:00,
2013-07-31 05:12:00,-999.9,-99.9,30.09,North,32767,-999.0,0.0,255,-99.99,,,0.00,Wunderground v.1.15,2013-07-31 09:12:00,
2013-07-31 05:18:00,-999.9,-99.9,30.09,North,32767,-999.0,0.0,255,-99.99,,,0.00,Wunderground v.1.15,2013-07-31 09:18:00,
2013-07-31 05:24:00,-999.9,-99.9,30.09,North,32767,-999.0,0.0,255,-99.99,,,0.00,Wunderground v.1.15,2013-07-31 09:24:00,
2013-07-31 05:30:00,-999.9,-99.9,30.09,North,32767,-999.0,0.0,255,-99.99,,,0.00,Wunderground v.1.15,2013-07-31 09:30:00,
2013-07-31 05:36:00,-999.9,-99.9,30.10,North,32767,-999.0,0.0,255,-99.99,,,0.00,Wunderground v.1.15,2013-07-31 09:36:00,
2013-07-31 05:42:00,-999.9,-99.9,30.10,North,32767,-999.0,0.0,255,-99.99,,,0.00,Wunderground v.1.15,2013-07-31 09:42:00,
2013-07-31 05:48:00,-999.9,-99.9,30.10,North,32767,-999.0,0.0,255,-99.99,,,0.00,Wunderground v.1.15,2013-07-31 09:48:00,
2013-07-31 05:54:00,-999.9,-99.9,30.11,North,32767,-999.0,0.0,255,-99.99,,,0.00,Wunderground v.1.15,2013-07-31 09:54:00,
2013-07-31 06:00:00,-999.9,-99.9,30.10,North,32767,-999.0,0.0,255,-99.99,,,0.00,Wunderground v.1.15,2013-07-31 10:00:00,
2013-07-31 06:06:00,-999.9,-99.9,30.10,North,32767,-999.0,0.0,255,-99.99,,,0.00,Wunderground v.1.15,2013-07-31 10:06:00,
2013-07-31 06:12:00,-999.9,-99.9,30.11,North,32767,-999.0,0.0,255,-99.99,,,0.00,Wunderground v.1.15,2013-07-31 10:12:00,
2013-07-31 06:18:00,-999.9,-99.9,30.11,North,32767,-999.0,0.0,255,-99.99,,,0.00,Wunderground v.1.15,2013-07-31 10:18:00,
2013-07-31 06:24:00,-999.9,-99.9,30.11,North,32767,-999.0,0.0,255,-99.99,,,0.00,Wunderground v.1.15,2013-07-31 10:24:00,
2013-07-31 06:30:00,-999.9,-99.9,30.11,North,32767,-999.0,0.0,255,-99.99,,,0.00,Wunderground v.1.15,2013-07-31 10:30:00,
2013-07-31 06:36:00,-999.9,-99.9,30.11,North,32767,-999.0,0.0,255,-99.99,,,0.00,Wunderground v.1.15,2013-07-31 10:36:00,
2013-07-31 06:42:00,-999.9,-99.9,30.11,North,32767,-999.0,0.0,255,-99.99,,,0.00,Wunderground v.1.15,2013-07-31 10:42:00,
2013-07-31 06:48:00,-999.9,-99.9,30.11,North,32767,-999.0,0.0,255,-99.99,,,0.00,Wunderground v.1.15,2013-07-31 10:48:00,
2013-07-31 06:54:00,-999.9,-99.9,30.12,North,32767,-999.0,0.0,255,-99.99,,,0.00,Wunderground v.1.15,2013-07-31 10:54:00,
2013-07-31 07:00:00,-999.9,-99.9,30.12,North,32767,-999.0,0.0,255,-99.99,,,0.00,Wunderground v.1.15,2013-07-31 11:00:00,
2013-07-31 07:06:00,-999.9,-99.9,30.12,North,32767,-999.0,0.0,255,-99.99,,,0.00,Wunderground v.1.15,2013-07-31 11:06:00,
2013-07-31 07:12:00,-999.9,-99.9,30.12,North,32767,-999.0,0.0,255,-99.99,,,0.00,Wunderground v.1.15,2013-07-31 11:12:00,
2013-07-31 07:18:00,-999.9,-99.9,30.12,North,32767,-999.0,0.0,255,-99.99,,,0.00,Wunderground v.1.15,2013-07-31 11:18:00,
2013-07-31 07:24:00,76.1,75.2,30.12,NE,44,0.0,0.0,97,0.00,,,0.00,Wunderground v.1.15,2013-07-31 11:24:00,
2013-07-31 07:30:00,76.1,75.2,30.12,NE,39,0.0,0.0,97,0.00,,,0.00,Wunderground v.1.15,2013-07-31 11:30:00,
2013-07-31 07:36:00,76.5,75.6,30.12,NE,38,0.0,0.0,97,0.00,,,0.00,Wunderground v.1.15,2013-07-31 11:36:00,
2013-07-31 07:42:00,77.0,76.1,30.12,NE,39,0.0,0.0,97,0.00,,,0.00,Wunderground v.1.15,2013-07-31 11:42:00,
2013-07-31 07:48:00,77.6,76.7,30.12,NE,39,0.0,0.0,97,0.00,,,0.00,Wunderground v.1.15,2013-07-31 11:48:00,
2013-07-31 07:54:00,78.2,77.3,30.12,NE,39,0.0,0.0,97,0.00,,,0.00,Wunderground v.1.15,2013-07-31 11:54:00,
2013-07-31 08:00:00,79.1,78.2,30.12,NE,39,0.0,0.0,97,0.00,,,0.00,Wunderground v.1.15,2013-07-31 12:00:00,
2013-07-31 08:06:00,79.7,78.5,30.12,SSE,150,0.0,0.0,96,0.00,,,0.00,Wunderground v.1.15,2013-07-31 12:06:00,
2013-07-31 08:12:00,80.1,78.2,30.12,SSE,157,0.0,0.0,94,0.00,,,0.00,Wunderground v.1.15,2013-07-31 12:12:00,
2013-07-31 08:18:00,80.6,78.4,30.13,South,171,0.0,0.0,93,0.00,,,0.00,Wunderground v.1.15,2013-07-31 12:18:00,
2013-07-31 08:24:00,81.3,78.4,30.13,SSE,164,0.0,2.0,91,0.00,,,0.00,Wunderground v.1.15,2013-07-31 12:24:00,
2013-07-31 08:30:00,81.7,78.5,30.13,South,175,1.0,4.0,90,0.00,,,0.00,Wunderground v.1.15,2013-07-31 12:30:00,
2013-07-31 08:36:00,82.4,78.5,30.13,SW,217,2.0,4.0,88,0.00,,,0.00,Wunderground v.1.15,2013-07-31 12:36:00,
2013-07-31 08:42:00,82.3,78.0,30.13,South,187,3.0,4.0,87,0.00,,,0.00,Wunderground v.1.15,2013-07-31 12:42:00,
2013-07-31 08:48:00,82.8,78.2,30.13,SSW,195,4.0,4.0,86,0.00,,,0.00,Wunderground v.1.15,2013-07-31 12:48:00,
2013-07-31 08:54:00,83.4,78.4,30.13,South,188,3.0,4.0,85,0.00,,,0.00,Wunderground v.1.15,2013-07-31 12:54:00,
2013-07-31 09:00:00,83.8,78.4,30.13,SSW,211,2.0,2.0,84,0.00,,,0.00,Wunderground v.1.15,2013-07-31 13:00:00,
2013-07-31 09:06:00,84.6,78.9,30.13,South,180,2.0,3.0,83,0.00,,,0.00,Wunderground v.1.15,2013-07-31 13:06:00,
2013-07-31 09:12:00,85.2,78.7,30.13,South,184,3.0,3.0,81,0.00,,,0.00,Wunderground v.1.15,2013-07-31 13:12:00,
2013-07-31 09:18:00,85.5,78.6,30.13,SSE,147,3.0,4.0,80,0.00,,,0.00,Wunderground v.1.15,2013-07-31 13:18:00,
2013-07-31 09:24:00,85.7,78.8,30.13,South,187,3.0,4.0,80,0.00,,,0.00,Wunderground v.1.15,2013-07-31 13:24:00,
2013-07-31 09:30:00,85.2,78.3,30.13,SSW,203,4.0,4.0,80,0.00,,,0.00,Wunderground v.1.15,2013-07-31 13:30:00,
2013-07-31 09:36:00,85.2,78.3,30.13,SSW,196,3.0,4.0,80,0.00,,,0.00,Wunderground v.1.15,2013-07-31 13:36:00,
2013-07-31 09:42:00,85.3,78.4,30.13,South,191,2.0,3.0,80,0.00,,,0.00,Wunderground v.1.15,2013-07-31 13:42:00,
2013-07-31 09:48:00,85.6,78.3,30.13,South,173,1.0,4.0,79,0.00,,,0.00,Wunderground v.1.15,2013-07-31 13:48:00,
2013-07-31 09:54:00,85.6,78.3,30.13,SSE,165,2.0,5.0,79,0.00,,,0.00,Wunderground v.1.15,2013-07-31 13:54:00,
2013-07-31 10:00:00,85.2,77.6,30.13,SSW,206,4.0,4.0,78,0.00,,,0.00,Wunderground v.1.15,2013-07-31 14:00:00,
2013-07-31 10:06:00,85.6,77.9,30.13,SSW,199,3.0,5.0,78,0.00,,,0.00,Wunderground v.1.15,2013-07-31 14:06:00,
2013-07-31 10:12:00,85.9,77.8,30.13,South,180,3.0,5.0,77,0.00,,,0.00,Wunderground v.1.15,2013-07-31 14:12:00,
2013-07-31 10:18:00,86.4,78.3,30.13,South,175,3.0,5.0,77,0.00,,,0.00,Wunderground v.1.15,2013-07-31 14:18:00,
2013-07-31 10:24:00,87.3,78.4,30.13,SSW,205,3.0,3.0,75,0.00,,,0.00,Wunderground v.1.15,2013-07-31 14:24:00,
2013-07-31 10:30:00,88.2,78.4,30.13,South,184,2.0,3.0,73,0.00,,,0.00,Wunderground v.1.15,2013-07-31 14:30:00,
2013-07-31 10:36:00,88.6,78.4,30.13,SE,132,2.0,3.0,72,0.00,,,0.00,Wunderground v.1.15,2013-07-31 14:36:00,
2013-07-31 10:42:00,89.6,78.5,30.13,South,175,1.0,2.0,70,0.00,,,0.00,Wunderground v.1.15,2013-07-31 14:42:00,
2013-07-31 10:48:00,89.7,78.2,30.13,SSW,198,2.0,5.0,69,0.00,,,0.00,Wunderground v.1.15,2013-07-31 14:48:00,
2013-07-31 10:54:00,89.4,77.9,30.13,SE,132,3.0,4.0,69,0.00,,,0.00,Wunderground v.1.15,2013-07-31 14:54:00,
2013-07-31 11:00:00,88.7,78.1,30.13,SSW,198,4.0,5.0,71,0.00,,,0.00,Wunderground v.1.15,2013-07-31 15:00:00,
2013-07-31 11:06:00,88.0,77.4,30.13,SSE,156,4.0,6.0,71,0.00,,,0.00,Wunderground v.1.15,2013-07-31 15:06:00,
2013-07-31 11:12:00,88.0,77.4,30.13,SSE,160,4.0,4.0,71,0.00,,,0.00,Wunderground v.1.15,2013-07-31 15:12:00,
2013-07-31 11:18:00,88.9,77.8,30.13,SSE,163,3.0,4.0,70,0.00,,,0.00,Wunderground v.1.15,2013-07-31 15:18:00,
2013-07-31 11:20:00,89.1,78.0,30.13,South,169,3.0,3.0,70,0.00,,,0.00,Wunderground v.1.15,2013-07-31 15:20:00,
2013-07-31 11:26:00,89.0,77.5,30.13,SW,234,3.0,4.0,69,0.00,,,0.00,Wunderground v.1.15,2013-07-31 15:26:00,
2013-07-31 11:32:00,88.9,77.4,30.13,South,190,3.0,3.0,69,0.00,,,0.00,Wunderground v.1.15,2013-07-31 15:32:00,
2013-07-31 11:38:00,89.5,77.5,30.13,WSW,244,3.0,5.0,68,0.00,,,0.00,Wunderground v.1.15,2013-07-31 15:38:00,
2013-07-31 11:44:00,91.1,78.2,30.12,SW,229,2.0,6.0,66,0.00,,,0.00,Wunderground v.1.15,2013-07-31 15:44:00,
2013-07-31 11:50:00,90.6,77.7,30.12,WSW,241,2.0,3.0,66,0.00,,,0.00,Wunderground v.1.15,2013-07-31 15:50:00,
2013-07-31 11:56:00,90.1,77.7,30.12,SW,225,3.0,4.0,67,0.00,,,0.00,Wunderground v.1.15,2013-07-31 15:56:00,
2013-07-31 12:02:00,90.8,77.9,30.12,SSW,207,2.0,7.0,66,0.00,,,0.00,Wunderground v.1.15,2013-07-31 16:02:00,
2013-07-31 12:08:00,91.5,79.0,30.12,SSE,163,3.0,7.0,67,0.00,,,0.00,Wunderground v.1.15,2013-07-31 16:08:00,
2013-07-31 12:14:00,91.8,78.4,30.12,South,190,4.0,6.0,65,0.00,,,0.00,Wunderground v.1.15,2013-07-31 16:14:00,
2013-07-31 12:20:00,91.7,77.8,30.12,SSE,165,4.0,4.0,64,0.00,,,0.00,Wunderground v.1.15,2013-07-31 16:20:00,
2013-07-31 12:26:00,91.9,78.0,30.11,WSW,238,3.0,4.0,64,0.00,,,0.00,Wunderground v.1.15,2013-07-31 16:26:00,
2013-07-31 12:32:00,91.3,77.9,30.11,West,259,4.0,5.0,65,0.00,,,0.00,Wunderground v.1.15,2013-07-31 16:32:00,
2013-07-31 12:38:00,91.5,78.1,30.11,SW,219,4.0,5.0,65,0.00,,,0.00,Wunderground v.1.15,2013-07-31 16:38:00,
2013-07-31 12:44:00,91.9,78.0,30.11,WSW,252,4.0,5.0,64,0.00,,,0.00,Wunderground v.1.15,2013-07-31 16:44:00,
2013-07-31 12:50:00,92.2,77.8,30.10,South,187,5.0,6.0,63,0.00,,,0.00,Wunderground v.1.15,2013-07-31 16:50:00,
2013-07-31 12:56:00,92.4,78.0,30.09,SSE,156,6.0,6.0,63,0.00,,,0.00,Wunderground v.1.15,2013-07-31 16:56:00,
2013-07-31 13:02:00,92.2,77.8,30.09,South,178,6.0,9.0,63,0.00,,,0.00,Wunderground v.1.15,2013-07-31 17:02:00,
2013-07-31 13:08:00,92.5,77.1,30.09,South,173,7.0,9.0,61,0.00,,,0.00,Wunderground v.1.15,2013-07-31 17:08:00,
2013-07-31 13:14:00,92.4,77.0,30.09,South,188,8.0,11.0,61,0.00,,,0.00,Wunderground v.1.15,2013-07-31 17:14:00,
2013-07-31 13:20:00,92.1,76.2,30.09,SW,219,7.0,7.0,60,0.00,,,0.00,Wunderground v.1.15,2013-07-31 17:20:00,
2013-07-31 13:26:00,89.2,75.0,30.09,ESE,121,8.0,11.0,63,0.00,,,0.00,Wunderground v.1.15,2013-07-31 17:26:00,
2013-07-31 13:32:00,88.1,75.3,30.08,SE,144,8.0,14.0,66,0.00,,,0.00,Wunderground v.1.15,2013-07-31 17:32:00,
2013-07-31 13:38:00,88.2,74.5,30.08,SSE,151,9.0,16.0,64,0.00,,,0.00,Wunderground v.1.15,2013-07-31 17:38:00,
2013-07-31 13:44:00,88.8,73.1,30.07,ESE,103,9.0,17.0,60,0.00,,,0.00,Wunderground v.1.15,2013-07-31 17:44:00,
2013-07-31 13:50:00,87.3,75.0,30.07,SE,146,11.0,12.0,67,0.00,,,0.00,Wunderground v.1.15,2013-07-31 17:50:00,
2013-07-31 13:56:00,86.6,76.1,30.07,East,97,11.0,22.0,71,0.00,,,0.00,Wunderground v.1.15,2013-07-31 17:56:00,
2013-07-31 14:02:00,84.8,75.6,30.08,ESE,108,12.0,12.0,74,0.00,,,0.00,Wunderground v.1.15,2013-07-31 18:02:00,
2013-07-31 14:08:00,83.2,74.8,30.08,ESE,122,13.0,20.0,76,0.00,,,0.00,Wunderground v.1.15,2013-07-31 18:08:00,
2013-07-31 14:14:00,83.2,74.0,30.06,SSW,194,10.0,12.0,74,0.00,,,0.00,Wunderground v.1.15,2013-07-31 18:14:00,
2013-07-31 14:20:00,83.4,74.2,30.05,South,182,7.0,7.0,74,0.00,,,0.00,Wunderground v.1.15,2013-07-31 18:20:00,
2013-07-31 14:26:00,83.1,73.5,30.06,ESE,102,6.0,8.0,73,0.00,,,0.00,Wunderground v.1.15,2013-07-31 18:26:00,
2013-07-31 14:32:00,83.0,73.4,30.07,SSE,165,5.0,6.0,73,0.00,,,0.00,Wunderground v.1.15,2013-07-31 18:32:00,
2013-07-31 14:38:00,82.8,73.3,30.07,East,98,5.0,7.0,73,0.00,,,0.00,Wunderground v.1.15,2013-07-31 18:38:00,
2013-07-31 14:44:00,82.5,73.4,30.07,East,87,5.0,7.0,74,0.00,,,0.00,Wunderground v.1.15,2013-07-31 18:44:00,
2013-07-31 14:50:00,82.4,73.3,30.09,NNW,340,4.0,4.0,74,0.00,,,0.00,Wunderground v.1.15,2013-07-31 18:50:00,
2013-07-31 14:56:00,80.7,73.6,30.10,NW,321,8.0,12.0,79,0.00,,,0.00,Wunderground v.1.15,2013-07-31 18:56:00,
2013-07-31 15:02:00,78.1,74.3,30.09,NW,314,13.0,40.0,88,0.32,,,0.02,Wunderground v.1.15,2013-07-31 19:02:00,
2013-07-31 15:08:00,75.3,73.1,30.10,West,265,19.0,40.0,93,0.08,,,0.02,Wunderground v.1.15,2013-07-31 19:08:00,
2013-07-31 15:14:00,73.1,71.0,30.10,West,269,15.0,21.0,93,2.06,,,0.14,Wunderground v.1.15,2013-07-31 19:14:00,
2013-07-31 15:20:00,73.0,71.8,30.09,WNW,292,10.0,10.0,96,2.91,,,0.37,Wunderground v.1.15,2013-07-31 19:20:00,
2013-07-31 15:26:00,73.3,72.1,30.09,West,269,8.0,11.0,96,1.29,,,0.55,Wunderground v.1.15,2013-07-31 19:26:00,
2013-07-31 15:32:00,73.6,72.4,30.08,WSW,242,5.0,6.0,96,0.75,,,0.67,Wunderground v.1.15,2013-07-31 19:32:00,
2013-07-31 15:38:00,73.8,72.6,30.08,South,175,3.0,6.0,96,0.32,,,0.71,Wunderground v.1.15,2013-07-31 19:38:00,
2013-07-31 15:44:00,74.1,73.2,30.07,South,188,4.0,4.0,97,0.18,,,0.73,Wunderground v.1.15,2013-07-31 19:44:00,
2013-07-31 15:50:00,74.2,73.0,30.07,SSE,157,2.0,2.0,96,0.18,,,0.76,Wunderground v.1.15,2013-07-31 19:50:00,
2013-07-31 15:56:00,74.2,73.0,30.07,SSW,206,1.0,2.0,96,0.12,,,0.77,Wunderground v.1.15,2013-07-31 19:56:00,
2013-07-31 16:02:00,74.3,73.1,30.06,East,101,1.0,2.0,96,0.09,,,0.77,Wunderground v.1.15,2013-07-31 20:02:00,
2013-07-31 16:08:00,74.3,73.1,30.06,WNW,303,0.0,40.0,96,0.05,,,0.78,Wunderground v.1.15,2013-07-31 20:08:00,
2013-07-31 16:14:00,74.6,73.7,30.06,NE,51,0.0,0.0,97,0.05,,,0.78,Wunderground v.1.15,2013-07-31 20:14:00,
2013-07-31 16:20:00,74.5,73.3,30.07,South,172,0.0,3.0,96,0.05,,,0.79,Wunderground v.1.15,2013-07-31 20:20:00,
2013-07-31 16:26:00,74.5,73.3,30.07,South,179,2.0,3.0,96,0.05,,,0.79,Wunderground v.1.15,2013-07-31 20:26:00,
2013-07-31 16:32:00,74.7,73.8,30.07,SSE,163,2.0,4.0,97,0.05,,,0.79,Wunderground v.1.15,2013-07-31 20:32:00,
2013-07-31 16:38:00,74.9,74.0,30.07,SW,235,1.0,4.0,97,0.04,,,0.80,Wunderground v.1.15,2013-07-31 20:38:00,
2013-07-31 16:44:00,75.1,74.2,30.07,WSW,254,1.0,1.0,97,0.08,,,0.81,Wunderground v.1.15,2013-07-31 20:44:00,
2013-07-31 16:50:00,75.2,74.3,30.06,West,263,0.0,0.0,97,0.08,,,0.81,Wunderground v.1.15,2013-07-31 20:50:00,
2013-07-31 16:56:00,75.4,74.5,30.05,SW,226,0.0,1.0,97,0.08,,,0.82,Wunderground v.1.15,2013-07-31 20:56:00,
2013-07-31 17:02:00,75.7,74.8,30.06,SSW,192,1.0,3.0,97,0.06,,,0.83,Wunderground v.1.15,2013-07-31 21:02:00,
2013-07-31 17:08:00,76.1,75.2,30.06,South,175,2.0,3.0,97,0.06,,,0.83,Wunderground v.1.15,2013-07-31 21:08:00,
2013-07-31 17:14:00,75.8,74.6,30.06,South,176,4.0,6.0,96,0.05,,,0.84,Wunderground v.1.15,2013-07-31 21:14:00,
2013-07-31 17:20:00,75.9,75.0,30.06,South,182,5.0,8.0,97,0.05,,,0.84,Wunderground v.1.15,2013-07-31 21:20:00,
2013-07-31 17:26:00,75.9,75.0,30.06,SSE,165,5.0,8.0,97,0.05,,,0.84,Wunderground v.1.15,2013-07-31 21:26:00,
2013-07-31 17:32:00,75.9,74.7,30.06,South,190,4.0,5.0,96,0.04,,,0.85,Wunderground v.1.15,2013-07-31 21:32:00,
2013-07-31 17:38:00,75.9,74.7,30.06,South,186,3.0,5.0,96,0.04,,,0.85,Wunderground v.1.15,2013-07-31 21:38:00,
2013-07-31 17:44:00,75.9,74.7,30.06,South,181,3.0,3.0,96,0.04,,,0.85,Wunderground v.1.15,2013-07-31 21:44:00,
2013-07-31 17:50:00,76.2,75.3,30.06,South,183,3.0,3.0,97,0.00,,,0.85,Wunderground v.1.15,2013-07-31 21:50:00,
2013-07-31 17:56:00,76.0,74.8,30.06,SE,142,3.0,4.0,96,0.00,,,0.85,Wunderground v.1.15,2013-07-31 21:56:00,
2013-07-31 18:02:00,75.8,74.6,30.06,South,191,2.0,3.0,96,0.00,,,0.85,Wunderground v.1.15,2013-07-31 22:02:00,
2013-07-31 18:08:00,76.0,75.1,30.06,SSW,203,1.0,3.0,97,0.00,,,0.85,Wunderground v.1.15,2013-07-31 22:08:00,
2013-07-31 18:14:00,76.1,74.9,30.06,SSW,205,0.0,2.0,96,0.00,,,0.85,Wunderground v.1.15,2013-07-31 22:14:00,
2013-07-31 18:20:00,76.0,74.8,30.06,SW,214,0.0,1.0,96,0.00,,,0.85,Wunderground v.1.15,2013-07-31 22:20:00,
2013-07-31 18:26:00,76.1,74.9,30.07,WSW,240,1.0,2.0,96,0.00,,,0.85,Wunderground v.1.15,2013-07-31 22:26:00,
2013-07-31 18:32:00,76.2,75.0,30.07,WSW,241,2.0,5.0,96,0.00,,,0.85,Wunderground v.1.15,2013-07-31 22:32:00,
2013-07-31 18:38:00,76.1,74.9,30.07,SW,225,3.0,5.0,96,0.00,,,0.85,Wunderground v.1.15,2013-07-31 22:38:00,
2013-07-31 18:44:00,76.1,74.9,30.07,SW,226,3.0,3.0,96,0.00,,,0.85,Wunderground v.1.15,2013-07-31 22:44:00,
2013-07-31 18:50:00,75.9,74.7,30.07,SW,230,2.0,3.0,96,0.00,,,0.85,Wunderground v.1.15,2013-07-31 22:50:00,
2013-07-31 18:56:00,75.8,74.6,30.07,West,268,2.0,3.0,96,0.00,,,0.86,Wunderground v.1.15,2013-07-31 22:56:00,
2013-07-31 19:02:00,75.5,74.0,30.07,SW,223,1.0,4.0,95,0.00,,,0.86,Wunderground v.1.15,2013-07-31 23:02:00,
2013-07-31 19:08:00,75.3,73.8,30.07,SW,221,1.0,4.0,95,0.00,,,0.86,Wunderground v.1.15,2013-07-31 23:08:00,
2013-07-31 19:14:00,75.3,73.8,30.07,SSW,196,0.0,1.0,95,0.04,,,0.87,Wunderground v.1.15,2013-07-31 23:14:00,
2013-07-31 19:20:00,75.5,74.0,30.07,SW,227,0.0,0.0,95,0.04,,,0.87,Wunderground v.1.15,2013-07-31 23:20:00,
2013-07-31 19:26:00,75.4,73.9,30.07,SW,226,0.0,0.0,95,0.04,,,0.87,Wunderground v.1.15,2013-07-31 23:26:00,
2013-07-31 19:32:00,75.4,74.2,30.07,SW,214,0.0,0.0,96,0.00,,,0.87,Wunderground v.1.15,2013-07-31 23:32:00,
2013-07-31 19:38:00,75.7,74.5,30.07,SSW,198,0.0,0.0,96,0.00,,,0.87,Wunderground v.1.15,2013-07-31 23:38:00,
2013-07-31 19:44:00,75.9,74.7,30.07,SSW,196,0.0,0.0,96,0.00,,,0.87,Wunderground v.1.15,2013-07-31 23:44:00,
2013-07-31 19:50:00,75.9,74.7,30.07,SSW,196,0.0,0.0,96,0.00,,,0.88,Wunderground v.1.15,2013-07-31 23:50:00,
2013-07-31 19:56:00,76.0,74.8,30.07,NW,323,0.0,0.0,96,0.00,,,0.88,Wunderground v.1.15,2013-07-31 23:56:00,
2013-07-31 20:02:00,76.0,74.8,30.07,NW,325,0.0,4.0,96,0.00,,,0.88,Wunderground v.1.15,2013-08-01 00:02:00,
2013-07-31 20:08:00,75.9,74.7,30.07,NW,321,0.0,4.0,96,0.00,,,0.88,Wunderground v.1.15,2013-08-01 00:08:00,
2013-07-31 20:14:00,75.9,74.7,30.07,NW,321,0.0,0.0,96,0.00,,,0.88,Wunderground v.1.15,2013-08-01 00:14:00,
2013-07-31 20:20:00,75.8,74.6,30.06,SW,217,0.0,0.0,96,0.00,,,0.88,Wunderground v.1.15,2013-08-01 00:20:00,
2013-07-31 20:26:00,75.7,74.5,30.06,SSW,196,0.0,0.0,96,0.00,,,0.88,Wunderground v.1.15,2013-08-01 00:26:00,
2013-07-31 20:32:00,75.6,74.4,30.06,SSW,205,0.0,0.0,96,0.00,,,0.88,Wunderground v.1.15,2013-08-01 00:32:00,
2013-07-31 20:38:00,75.6,74.4,30.06,SSW,205,0.0,0.0,96,0.00,,,0.88,Wunderground v.1.15,2013-08-01 00:38:00,
2013-07-31 20:44:00,75.4,74.2,30.06,SSE,161,0.0,0.0,96,0.00,,,0.88,Wunderground v.1.15,2013-08-01 00:44:00,
2013-07-31 20:50:00,75.5,74.6,30.06,SSW,194,0.0,0.0,97,0.00,,,0.88,Wunderground v.1.15,2013-08-01 00:50:00,
2013-07-31 20:56:00,75.4,74.2,30.07,SSW,192,1.0,3.0,96,0.00,,,0.88,Wunderground v.1.15,2013-08-01 00:56:00,
2013-07-31 21:02:00,75.5,74.6,30.07,South,183,3.0,3.0,97,0.00,,,0.88,Wunderground v.1.15,2013-08-01 01:02:00,
2013-07-31 21:08:00,75.6,74.4,30.07,SSW,194,3.0,4.0,96,0.00,,,0.88,Wunderground v.1.15,2013-08-01 01:08:00,
2013-07-31 21:14:00,75.6,74.4,30.07,South,176,3.0,3.0,96,0.00,,,0.88,Wunderground v.1.15,2013-08-01 01:14:00,
2013-07-31 21:20:00,75.5,74.3,30.07,South,180,3.0,4.0,96,0.00,,,0.88,Wunderground v.1.15,2013-08-01 01:20:00,
2013-07-31 21:26:00,75.2,73.7,30.07,SSE,149,4.0,6.0,95,0.00,,,0.88,Wunderground v.1.15,2013-08-01 01:26:00,
2013-07-31 21:32:00,75.0,73.5,30.07,SSE,155,6.0,9.0,95,0.00,,,0.88,Wunderground v.1.15,2013-08-01 01:32:00,
2013-07-31 21:38:00,74.5,72.7,30.07,SE,128,7.0,10.0,94,0.00,,,0.88,Wunderground v.1.15,2013-08-01 01:38:00,
2013-07-31 21:44:00,74.0,72.2,30.07,South,187,8.0,12.0,94,0.00,,,0.88,Wunderground v.1.15,2013-08-01 01:44:00,
2013-07-31 21:50:00,73.7,71.9,30.07,South,176,7.0,10.0,94,0.00,,,0.88,Wunderground v.1.15,2013-08-01 01:50:00,
2013-07-31 21:56:00,73.5,71.7,30.07,South,179,8.0,10.0,94,0.00,,,0.88,Wunderground v.1.15,2013-08-01 01:56:00,
2013-07-31 22:02:00,73.3,71.5,30.07,South,171,7.0,8.0,94,0.00,,,0.88,Wunderground v.1.15,2013-08-01 02:02:00,
2013-07-31 22:08:00,73.2,71.7,30.08,South,189,6.0,8.0,95,0.00,,,0.88,Wunderground v.1.15,2013-08-01 02:08:00,
2013-07-31 22:14:00,73.2,71.7,30.07,South,177,6.0,7.0,95,0.00,,,0.88,Wunderground v.1.15,2013-08-01 02:14:00,
2013-07-31 22:20:00,73.2,71.7,30.07,South,188,6.0,6.0,95,0.00,,,0.88,Wunderground v.1.15,2013-08-01 02:20:00,
2013-07-31 22:26:00,73.2,71.7,30.07,South,184,5.0,6.0,95,0.00,,,0.88,Wunderground v.1.15,2013-08-01 02:26:00,
2013-07-31 22:32:00,73.2,72.0,30.07,South,189,4.0,4.0,96,0.00,,,0.88,Wunderground v.1.15,2013-08-01 02:32:00,
2013-07-31 22:38:00,73.4,72.2,30.07,SSE,161,3.0,4.0,96,0.00,,,0.88,Wunderground v.1.15,2013-08-01 02:38:00,
2013-07-31 22:44:00,73.5,72.3,30.07,South,179,3.0,5.0,96,0.00,,,0.88,Wunderground v.1.15,2013-08-01 02:44:00,
2013-07-31 22:50:00,73.7,72.5,30.07,SSW,206,3.0,4.0,96,0.00,,,0.88,Wunderground v.1.15,2013-08-01 02:50:00,
2013-07-31 22:56:00,73.7,72.5,30.07,South,188,4.0,5.0,96,0.00,,,0.88,Wunderground v.1.15,2013-08-01 02:56:00,
2013-07-31 23:02:00,73.6,72.4,30.06,South,175,4.0,11.0,96,0.00,,,0.88,Wunderground v.1.15,2013-08-01 03:02:00,
2013-07-31 23:08:00,73.6,72.4,30.06,South,177,4.0,11.0,96,0.00,,,0.88,Wunderground v.1.15,2013-08-01 03:08:00,
2013-07-31 23:14:00,73.7,72.5,30.06,South,188,2.0,3.0,96,0.00,,,0.88,Wunderground v.1.15,2013-08-01 03:14:00,
2013-07-31 23:20:00,73.9,72.7,30.06,SSE,165,1.0,1.0,96,0.00,,,0.88,Wunderground v.1.15,2013-08-01 03:20:00,
2013-07-31 23:26:00,73.8,72.6,30.06,South,169,1.0,2.0,96,0.00,,,0.88,Wunderground v.1.15,2013-08-01 03:26:00,
2013-07-31 23:32:00,73.6,72.1,30.06,South,190,3.0,3.0,95,0.00,,,0.88,Wunderground v.1.15,2013-08-01 03:32:00,
2013-07-31 23:38:00,73.5,72.0,30.06,South,178,3.0,4.0,95,0.00,,,0.88,Wunderground v.1.15,2013-08-01 03:38:00,
2013-07-31 23:44:00,73.5,72.0,30.06,South,172,4.0,6.0,95,0.00,,,0.88,Wunderground v.1.15,2013-08-01 03:44:00,
2013-07-31 23:50:00,73.5,71.7,30.06,South,184,5.0,5.0,94,0.00,,,0.88,Wunderground v.1.15,2013-08-01 03:50:00,
2013-07-31 23:56:00,73.5,71.7,30.06,South,179,6.0,6.0,94,0.00,,,0.88,Wunderground v.1.15,2013-08-01 03:56:00,